Other Public Products
Issued by NWS Grand Forks, ND

Home | Current Version | Previous Version | Graphics & Text | Print | Product List | Glossary On
Versions: 1 2 3 4 5 6 7 8 9 10 11 12 13 14 15 16 17 18 19 20 21 22 23 24 25 26 27 28 29 30 31 32 33 34 35 36 37 38 39 40 41 42 43 44 45 46 47 48 49 50
000
FPUS83 KFGF 262031
OPUFGF
PRAIRIE TO PINES WEATHER ROUNDUP
NATIONAL WEATHER SERVICE EASTERN NORTH DAKOTA/GRAND FORKS ND
300 PM CDT TUE MAY 26 2015

 **SATELLITE DATA USED TO AUGMENT SKY COVER AT AUTOMATED STATIONS**
 *****  WEATHER ACROSS EASTERN NORTH DAKOTA  *****

CITY           SKY/WX    TMP DP  RH WIND       PRES   REMARKS
GRAND FORKS    MOSUNNY   84  44  24 CALM      29.74F
GRAND FORKS AF MOSUNNY   84  44  24 N12G17    29.75F
GRAND CITY NWS   N/A     84 N/A N/A N9          N/A
BUXTON           N/A     81  56  42 SE9         N/A
DEVILS LAKE    MOSUNNY   75  41  29 W18       29.79F
FARGO          PTSUNNY   76  56  49 S7        29.79F
WAHPETON ARPT  CLOUDY    72  50  46 CALM      29.82F
$$

 *****  WEATHER ACROSS CENTRAL AND WESTERN NORTH DAKOTA  *****

CITY           SKY/WX    TMP DP  RH WIND       PRES   REMARKS
JAMESTOWN      PTSUNNY   76  47  35 N18G28    29.80F
BISMARCK       SUNNY     81  46  29 NW13      29.88F
MINOT          MOSUNNY   77  40  26 W20       29.85S
MINOT AFB      MOSUNNY   85  42  21 N13G20    29.82F
GARRISON         N/A     78  40  25 E6        29.87F
WILLISTON      MOSUNNY   80  45  28 W10       29.89F
DICKINSON      CLOUDY    76  40  27 VRB7      29.91F
HETTINGER      MOSUNNY   69  46  43 S6        29.95F
$$

 *****  OTHER OBSERVATIONS NORTHEAST NORTH DAKOTA  *****

CITY           SKY/WX    TMP DP  RH WIND       PRES   REMARKS
WALHALLA         N/A    N/A N/A N/A MISG        N/A
LANGDON        FAIR      84  39  20 NW15G25   29.79S
CAVALIER       FAIR      82  41  23 N7        29.74S
GRAFTON        FAIR      84  46  26 N9        29.75F
CANDO          FAIR      81  36  19 NW6       29.79F
FORT TOTTEN      N/A     73  40  29 N13       29.95S
ROLLA            N/A     82  32  16 NW17G23   29.82F
RUGBY          NOT AVBL
 ***** THE ABOVE OBSERVATIONS ARE NON NWS ARE NOT QUALITY
        CONTROLLED AND MAY MIS-REPORT RAIN FOR SNOW...
$$

 *****  OTHER OBSERVATIONS SOUTHEAST NORTH DAKOTA *****

CITY           SKY/WX    TMP DP  RH WIND       PRES   REMARKS
COOPERSTOWN    NOT AVBL
VALLEY CITY    FAIR      77  48  36 NE8       29.79F
OAKES            N/A     73  55  53 NW5       29.82F
GWINNER        NOT AVBL
SHEYENNE NWR     N/A     76  56  49 SW6       29.95
BUFFALO        NOT AVBL
WYNDMERE         N/A     75  55  50 S8          N/A
 ***** THE ABOVE OBSERVATIONS ARE NON NWS ARE NOT QUALITY
       CONTROLLED AND MAY MIS-REPORT RAIN FOR SNOW...
$$

  *****  WEATHER ACROSS NORTHERN MINNESOTA  *****

CITY           SKY/WX    TMP DP  RH WIND       PRES   REMARKS
FLAG ISLAND    MOSUNNY   68  52  56 SE8       29.75F
WARROAD        MOSUNNY   79  54  41 SW5       29.76S
ROSEAU         SUNNY     81  48  32 CALM      29.75F
HALLOCK        SUNNY     82  45  26 CALM      29.74F
THF RVR FALLS  SUNNY     79  48  34 CALM      29.78F
HALSTAD          N/A     77  50  38 SW12        N/A
FOSSTON        PTSUNNY   75  50  41 S7        29.80F
BAUDETTE       MOSUNNY   77  51  40 VRB6      29.77F
WASKISH        PTSUNNY   70  55  60 W7        29.80S
CROOKSTON      SUNNY     81  52  36 SW5       29.76F
$$
  *****  WEATHER ACROSS CENTRAL AND WEST MINNESOTA  *****

CITY           SKY/WX    TMP DP  RH WIND       PRES   REMARKS
BEMIDJI        PTSUNNY   71  53  51 S6        29.81S
PARK RAPIDS    CLOUDY    73  49  42 SE5       29.81F
WADENA         CLOUDY    72  52  49 N3        29.81S
DETROIT LAKES  CLOUDY    72  52  49 SW6       29.83S
MOORHEAD       PTSUNNY   73  57  56 S8        29.80F
FERGUS FALLS   CLOUDY    72  54  53 CALM      29.81F
ELBOW LAKE     FAIR      71  53  53 CALM      29.82S
MORRIS MN      CLOUDY    72  52  49 N8        29.81S
STAPLES        CLOUDY    70  52  52 E3        29.80F
WHEATON        CLOUDY    70  54  56 NW5       29.84S
$$
  *****  WEATHER ELSEWHERE ACROSS MINNESOTA  *****

CITY           SKY/WX    TMP DP  RH WIND       PRES   REMARKS
DULUTH         CLOUDY    60  52  74 E8        29.82F
INTRNTL FALLS  PTSUNNY   74  51  44 VRB5      29.79F
ELY            NOT AVBL
CLOQUET        CLOUDY    61  52  72 E5        29.81F
BRAINERD       CLOUDY    67  52  58 NE13      29.81F
HIBBING        CLOUDY    71  48  43 VRB3      29.80F
ALEXANDRIA     CLOUDY    70  50  49 NE15G22   29.82F
SAINT CLOUD    CLOUDY    60  54  80 NE6       29.80S
MINNEAPOLIS    LGT RAIN  58  57  97 N10       29.78S
$$

  *****  WEATHER ACROSS SOUTH DAKOTA  *****

CITY           SKY/WX    TMP DP  RH WIND       PRES   REMARKS
SIOUX FALLS    CLOUDY    64  55  72 N9        29.83S
BROOKINGS      CLOUDY    66  52  59 N15       29.84S
WATERTOWN      CLOUDY    68  52  56 N7        29.85F
HURON          MOSUNNY   76  50  40 N13G18    29.84S
SISSETON         N/A     74  53  48 VRB5      29.82F
ABERDEEN       PTSUNNY   76  54  46 VRB3      29.84F
MITCHELL       PTSUNNY   71  54  54 NE7       29.86F
PIERRE         MOSUNNY   76  51  41 NW12      29.89F
MOBRIDGE       SUNNY     79  50  36 VRB6      29.87F
RAPID CITY     MOSUNNY   66  48  52 S12       29.97F
$$

  *****  SOME WEATHER IN NEARBY STATES *****

CITY           SKY/WX    TMP DP  RH WIND       PRES   REMARKS
GLASGOW MT     SUNNY     75  44  33 E8G16     29.88F
GREAT FALLS MT PTSUNNY   63  50  62 N9        29.96F
CHEYENNE WY    PTSUNNY   56  46  69 SE6       30.06F
SCOTTSBLUFF NE MOSUNNY   67  53  61 SE10      29.99F
OMAHA NE       CLOUDY    66  60  81 NW17      29.82R
DES MOINES IA  CLOUDY    69  60  73 SW10      29.80R
DAVENPORT IA   CLOUDY    70  60  70 W24G38    29.77R
CHICAGO IL     PTSUNNY   73  63  70 S13G23    29.77F
EAU CLAIRE WI  CLOUDY    65  60  84 N6        29.72F
LA CROSSE WI   LGT RAIN  66  62  87 N5        29.63F FOG
$$

  *****  SOME NATIONAL WEATHER *****

CITY           SKY/WX    TMP DP  RH WIND       PRES   REMARKS
LA GUARDIA NY  PTSUNNY   84  60  44 S16       30.14F
RALEIGH NC     PTSUNNY   86  67  52 SW9       30.22F
ATLANTA GA     TSTM      68  64  88 W10       30.22R FOG
NEW ORLEANS LA PTSUNNY   85  65  51 SE7       30.08S
OKLAHOMA CITY  PTSUNNY   76  67  73 S13G21    29.96S
ALBUQUERQUE NM PTSUNNY   71  42  35 VRB7      30.12F
SALT LAKE CITY PTSUNNY   61  50  67 S12       30.03F
LOS ANGELES CA PTSUNNY   64  55  72 W10       30.01F
BOISE ID       MOSUNNY   73  46  38 S6        29.92F
SEATTLE WA     MOSUNNY   66  50  55 W8        30.06S
$$

*** WEATHER ACROSS MANITOBA...SASKATCHEWAN AND ONTARIO ***
                ***ONTARIO***

CITY           SKY/WX    TMP DP  RH WIND       PRES   REMARKS
GERALDTON      MOSUNNY   72  52  49 VRB5      29.81F
THUNDER BAY    CLOUDY    70  54  56 E6        29.81F
SIOUX LOOKOUT  CLOUDY    75  52  43 SW7       29.76F
TORONTO        MOSUNNY   84  64  51 SW16G22   30.01F
BIG TROUT LK   SUNNY     57  37  47 NE8G17    29.77F
PICKLE LAKE    PTSUNNY   79  37  22 SW9G17    29.72F
DRYDEN         MOSUNNY   77  50  38 VRB8      29.77F
KENORA         PTSUNNY   77  50  38 S6        29.78F
$$
                *** MANITOBA***

CITY           SKY/WX    TMP DP  RH WIND       PRES   REMARKS
BRANDON        PTSUNNY   86  39  19 NW15G24   29.78F
DAUPHIN        MOSUNNY   79  46  31 NE15G22   29.75S
ISLAND LAKE    PTSUNNY   57  36  44 NE8G18    29.78F
PILOT MOUND      N/A     84  36  17 W10G21      N/A
THE PAS        PTSUNNY   48  37  66 NE12G18   29.90R
THOMPSON       PTSUNNY   41  27  56 NE13G20   29.95F
WINNIPEG       MOSUNNY   84  41  21 W9G20     29.74S
LYNN LAKE      SUNNY     50  18  27 N8        29.96R
CHURCHILL      PTSUNNY   32  23  69 NE8       30.03F WCI  25
GILLAM         PTSUNNY   39  25  56 NE8       29.97F
$$
                ***SASKATCHEWAN***

CITY           SKY/WX    TMP DP  RH WIND       PRES   REMARKS
ESTEVAN        CLOUDY    82  41  23 W13G24    29.85F
KINDERSLEY     PTSUNNY   79  34  19 N16G23    29.87
LLOYDMINSTER   MOSUNNY   75  43  31 NW13G21   29.92S
PRINCE ALBERT  MOSUNNY   75  48  38 N14G21    29.84S
REGINA         PTSUNNY   82  36  18 W9G17     29.84F



USA.gov is the U.S. government's official web portal to all federal, state and local government web resources and services.